Sarasota, FL

5:39 PM EST on November 19, 2019 (GMT -0500)
Sarasota-bradenton

Weather History for KSRQ - September, 2019

Change the Weather History Date:

Saturday, September 14, 2019

  Actual Average Record
Temperature  
Mean Temperature 86 °F 82 °F  
Max Temperature 93 °F 89 °F 95 °F (1997)
Min Temperature 78 °F 74 °F 64 °F (1913)
Degree Days  
Heating Degree Days 0 0  
Month to date heating degree days 0 0  
Since 1 July heating degree days 0 0  
Cooling Degree Days 21 17  
Month to date cooling degree days 305 238  
Year to date cooling degree days 3163 2535  
Growing Degree Days 36 (Base 50)    
Moisture  
Dew Point 74 °F    
Average Humidity 72    
Maximum Humidity 87    
Minimum Humidity 52    
Precipitation  
Precipitation T in 0.23 in 7.95 in (2001)
Month to date precipitation 0.83 4.08  
Year to date precipitation 42.22 42.41  
Sea Level Pressure  
Sea Level Pressure 29.94 in    
Wind  
Wind Speed 8 mph ()    
Max Wind Speed 28 mph    
Max Gust Speed 32 mph    
Visibility 10.0 miles    
Events Rain , Thunderstorm    
T = Trace of Precipitation, MM = Missing Value Source: Averaged Metar Reports

Daily Weather History Graph

Daily Weather History Graph

Search for Another Location

Airport or City:

Astronomy

Sep. 14, 2019 Rise Set
Actual Time 7:15 AM EDT 7:36 PM EDT
Civil Twilight 6:51 AM EDT 7:59 PM EDT
Nautical Twilight 6:24 AM EDT 8:26 PM EDT
Astronomical Twilight 5:56 AM EDT 8:54 PM EDT
Moon 8:15 PM EDT (9/14) 7:31 AM EDT (9/14)
Length of Visible Light 13h 07m
Length of Day
12h 21m
Full, 100% of the Moon is Illuminated
Sep 14
Full
Sep 21
Last Quarter
Sep 28
New
Oct 5
First Quarter
Oct 13
Full

Hourly Weather History & Observations

Time (EDT) Temp. Heat Index Dew Point Humidity Pressure Visibility Wind Dir Wind Speed Gust Speed Precip Events Conditions
12:53 AM 81.0 °F 86.2 °F 73.9 °F 79% 29.99 in 10.0 mi NE 8.1 mph - N/A   Clear
1:53 AM 80.1 °F 84.2 °F 73.0 °F 79% 29.99 in 10.0 mi NNE 5.8 mph - N/A   Clear
2:53 AM 80.1 °F 84.2 °F 73.0 °F 79% 29.96 in 10.0 mi NE 9.2 mph - N/A   Clear
3:53 AM 79.0 °F - 73.0 °F 82% 29.94 in 10.0 mi NE 6.9 mph - N/A   Clear
4:53 AM 79.0 °F - 73.0 °F 82% 29.94 in 10.0 mi NE 8.1 mph - N/A   Clear
5:53 AM 78.1 °F - 73.9 °F 87% 29.94 in 10.0 mi NE 8.1 mph - N/A   Scattered Clouds
6:53 AM 78.1 °F - 73.9 °F 87% 29.94 in 10.0 mi NE 8.1 mph - N/A   Clear
7:53 AM 79.0 °F - 73.9 °F 84% 29.96 in 10.0 mi NE 8.1 mph - N/A   Clear
8:53 AM 82.0 °F 88.6 °F 75.0 °F 79% 29.98 in 10.0 mi NE 10.4 mph - N/A   Clear
9:53 AM 84.9 °F 93.3 °F 75.0 °F 72% 29.99 in 10.0 mi ENE 10.4 mph 19.6 mph N/A   Partly Cloudy
10:53 AM 88.0 °F 97.5 °F 75.0 °F 65% 29.98 in 10.0 mi ENE 12.7 mph - N/A   Scattered Clouds
11:53 AM 90.0 °F 99.0 °F 73.9 °F 59% 29.97 in 10.0 mi ENE 16.1 mph 24.2 mph N/A   Mostly Cloudy
12:53 PM 91.0 °F 100.4 °F 73.9 °F 57% 29.94 in 10.0 mi ENE 11.5 mph 23.0 mph N/A   Partly Cloudy
1:53 PM 91.9 °F 100.7 °F 73.0 °F 54% 29.93 in 10.0 mi ENE 21.9 mph 32.2 mph N/A   Partly Cloudy
2:53 PM 93.9 °F 104.0 °F 73.9 °F 52% 29.91 in 10.0 mi ENE 13.8 mph 20.7 mph N/A   Scattered Clouds
3:36 PM 90.0 °F 100.2 °F 75.0 °F 61% 29.91 in 10.0 mi ENE 12.7 mph 21.9 mph N/A Thunderstorm Scattered Clouds
3:53 PM 91.0 °F 100.4 °F 73.9 °F 57% 29.91 in 10.0 mi East 16.1 mph - N/A Thunderstorm Scattered Clouds
4:08 PM 90.0 °F 99.0 °F 73.9 °F 59% 29.90 in 10.0 mi ENE 12.7 mph 19.6 mph N/A   Mostly Cloudy
4:53 PM 82.9 °F 89.4 °F 73.9 °F 74% 29.91 in 10.0 mi NE 9.2 mph 23.0 mph 0.00 in Rain Light Rain
5:53 PM 84.9 °F 93.3 °F 75.0 °F 72% 29.90 in 10.0 mi ENE 6.9 mph - 0.00 in   Clear
6:53 PM 86.0 °F 95.1 °F 75.0 °F 70% 29.89 in 10.0 mi NNE 4.6 mph - N/A   Clear
7:53 PM 84.9 °F 93.3 °F 75.0 °F 72% 29.92 in 10.0 mi NE 9.2 mph - N/A   Partly Cloudy
8:53 PM 84.0 °F 91.2 °F 73.9 °F 72% 29.94 in 10.0 mi NE 9.2 mph - N/A   Clear
9:53 PM 82.9 °F 89.4 °F 73.9 °F 74% 29.96 in 10.0 mi NE 9.2 mph - N/A   Clear
10:53 PM 82.0 °F 88.6 °F 75.0 °F 79% 29.97 in 10.0 mi ENE 8.1 mph - N/A   Clear
11:53 PM 82.0 °F 88.6 °F 75.0 °F 79% 29.97 in 10.0 mi NE 4.6 mph - N/A   Clear